Location: Arbon
(43.0005°N, 0.7472°E)
Time: 10:12:19
(UTC+00:00)

SR - Pass Details

Date: 02 December 2020
Orbit: 575 x 880 km, 66.7° (Epoch: 21 January)

Event Time Altitude Azimuth Distance (km) Brightness Sun altitude
Rises 04:13:19 0° 307° (NW) 3,284 - -31.6°
Reaches altitude 10° 04:17:22 10° 277° (W) 2,417 - -30.8°
Maximum altitude 04:19:19 12° 257° (WSW) 2,310 - -30.5°
Drops below altitude 10° 04:21:19 10° 236° (SW) 2,465 - -30.1°
Sets 04:25:35 0° 207° (SSW) 3,437 - -29.3°
